EW7910 Weather Reports


Display with metric or nautical units.
time (UTC)temp
F
wind
direction
speed
MPH
gust
MPH
rain 1hr
in
rain 24hr
in
rain mn
in
humidity
%
barometer
mb
20260504173010 70 162 7.0 18.0 0.00 0.00 0.00 41 1004.6
20260504171607 70 150 10.0 23.0 0.00 0.00 0.00 40 1004.8
20260504081516 50 176 5.0 10.0 0.00 0.00 0.00 56 1007.4
20260504044526 50 168 1.0 7.0 0.00 0.00 0.00 58 1008.6
20260504043021 50 179 5.0 9.0 0.00 0.00 0.00 57 1008.7
20260504041516 51 129 4.0 11.0 0.00 0.00 0.00 56 1008.6
20260504040002 51 148 4.0 10.0 0.00 0.00 0.00 55 1008.7
20260504034556 51 147 4.0 9.0 0.00 0.00 0.00 54 1008.6
20260504033059 52 143 3.0 11.0 0.00 0.00 0.00 53 1008.6
20260504031558 52 168 4.0 11.0 0.00 0.00 0.00 52 1008.6
20260504030048 53 169 6.0 13.0 0.00 0.00 0.00 51 1008.8
20260504024547 53 179 4.0 15.0 0.00 0.00 0.00 50 1008.7
20260504023034 54 158 8.0 16.0 0.00 0.00 0.00 49 1008.8
20260504021530 54 153 7.0 16.0 0.00 0.00 0.00 49 1008.9
20260504020008 53 241 5.0 12.0 0.00 0.00 0.00 50 1009.1
20260504014502 54 173 7.0 13.0 0.00 0.00 0.00 48 1009.2
20260504013056 54 195 2.0 13.0 0.00 0.00 0.00 47 1009.2
20260504011543 54 176 5.0 13.0 0.00 0.00 0.00 47 1009.2
20260504010038 54 139 5.0 18.0 0.00 0.00 0.00 47 1009.1
20260504004542 54 160 8.0 22.0 0.00 0.00 0.00 47 1009.0
20260504003029 54 215 6.0 23.0 0.00 0.00 0.00 49 1009.5
20260504001525 54 170 10.0 19.0 0.00 0.00 0.00 47 1009.4
20260504000021 54 180 10.0 24.0 0.00 0.00 0.00 47 1009.5
20260503234516 54 233 9.0 21.0 0.00 0.00 0.00 46 1009.3
20260503233056 54 169 3.0 18.0 0.00 0.00 0.00 46 1009.2
20260503231555 54 175 7.0 21.0 0.00 0.00 0.00 46 1009.2
20260503230050 54 176 17.0 36.0 0.00 0.00 0.00 46 1009.5
20260503224542 55 223 8.0 24.0 0.00 0.00 0.00 45 1009.4
20260503223037 55 207 8.0 21.0 0.00 0.00 0.00 46 1009.4
20260503221533 56 172 8.0 30.0 0.00 0.00 0.00 44 1009.2
20260503220030 57 221 6.0 21.0 0.00 0.00 0.00 42 1009.1
20260503214521 56 231 8.0 26.0 0.00 0.00 0.00 42 1009.0
20260503213103 57 264 9.0 24.0 0.00 0.00 0.00 39 1009.1
20260503211603 58 153 6.0 19.0 0.00 0.00 0.00 40 1008.9
20260503210033 58 254 12.0 22.0 0.00 0.00 0.00 38 1008.7
20260503204531 58 231 6.0 24.0 0.00 0.00 0.00 40 1009.0
20260503203006 58 89 8.0 27.0 0.00 0.00 0.00 40 1009.1
20260503201502 58 159 10.0 24.0 0.00 0.00 0.00 39 1009.3
20260503200047 59 47 13.0 24.0 0.00 0.00 0.00 38 1009.6
20260503194545 58 144 7.0 27.0 0.00 0.00 0.00 38 1009.7
20260503193041 57 199 6.0 24.0 0.00 0.00 0.00 40 1009.9
20260503191533 56 216 10.0 26.0 0.00 0.00 0.00 40 1010.1
20260503190039 56 139 10.0 30.0 0.00 0.00 0.00 38 1010.4
20260503184524 56 169 6.0 19.0 0.00 0.00 0.00 37 1010.8
20260503183020 56 218 11.0 25.0 0.00 0.00 0.00 38 1010.9
20260503181515 54 194 13.0 26.0 0.00 0.00 0.00 40 1011.2
20260503180054 54 70 5.0 21.0 0.00 0.00 0.00 38 1011.4
20260503174604 53 171 5.0 22.0 0.00 0.00 0.00 44 1011.8